TimeEAT,TemperatureF,Dew PointF,Humidity,Sea Level PressureIn,VisibilityMPH,Wind Direction,Wind SpeedMPH,Gust SpeedMPH,PrecipitationIn,Events,Conditions,WindDirDegrees,DateUTC
12:00 AM,80.6,75.2,84,29.80,6.2,Calm,Calm,-,N/A,,Partly Cloudy,0,2013-02-16 21:00:00
1:00 AM,78.8,75.2,89,29.80,6.2,Calm,Calm,-,N/A,,Partly Cloudy,0,2013-02-16 22:00:00
2:00 AM,78.8,75.2,89,29.80,6.2,NNW,5.8,-,N/A,,Partly Cloudy,330,2013-02-16 23:00:00
3:00 AM,79,74,80,29.78,19,Calm,Calm,,,,Mostly Cloudy,,2013-02-17 00:00:00
3:00 AM,78.8,73.4,83,29.77,6.2,North,5.8,-,N/A,,Mostly Cloudy,360,2013-02-17 00:00:00
4:00 AM,78.8,73.4,83,29.77,6.2,NNE,3.5,-,N/A,,Partly Cloudy,30,2013-02-17 01:00:00
5:00 AM,78.8,73.4,83,29.80,6.2,Calm,Calm,-,N/A,,Partly Cloudy,0,2013-02-17 02:00:00
6:00 AM,77.0,75.2,94,29.80,6.2,North,3.5,-,N/A,,Partly Cloudy,10,2013-02-17 03:00:00
7:00 AM,77.0,73.4,89,29.83,6.2,Calm,Calm,-,N/A,,Partly Cloudy,0,2013-02-17 04:00:00
8:00 AM,78.8,73.4,83,29.86,6.2,North,4.6,-,N/A,,Mostly Cloudy,360,2013-02-17 05:00:00
9:00 AM,83,71,58,29.86,19,NNE,9.2,,,,Scattered Clouds,30,2013-02-17 06:00:00
9:00 AM,84.2,71.6,66,29.86,6.2,NNE,9.2,-,N/A,,Scattered Clouds,30,2013-02-17 06:00:00
10:00 AM,87.8,69.8,55,29.86,6.2,NNE,9.2,-,N/A,,Scattered Clouds,20,2013-02-17 07:00:00
11:00 AM,89.6,69.8,52,29.83,6.2,North,11.5,-,N/A,,Mostly Cloudy,10,2013-02-17 08:00:00
12:00 PM,87.8,69.8,55,29.83,6.2,NE,12.7,-,N/A,,Mostly Cloudy,40,2013-02-17 09:00:00
1:00 PM,89.6,71.6,55,29.77,6.2,ENE,11.5,-,N/A,,Scattered Clouds,60,2013-02-17 10:00:00
2:00 PM,89.6,71.6,55,29.74,6.2,ENE,13.8,-,N/A,,Partly Cloudy,60,2013-02-17 11:00:00
3:00 PM,89.6,71.6,55,29.71,6.2,East,15.0,-,N/A,,Partly Cloudy,80,2013-02-17 12:00:00
4:00 PM,87.8,71.6,58,29.71,6.2,East,13.8,-,N/A,,Scattered Clouds,80,2013-02-17 13:00:00
5:00 PM,86.0,71.6,62,29.71,6.2,East,15.0,-,N/A,,Scattered Clouds,80,2013-02-17 14:00:00
6:00 PM,84.2,73.4,70,29.71,6.2,ENE,17.3,-,N/A,,Mostly Cloudy,70,2013-02-17 15:00:00
7:00 PM,80.6,73.4,79,29.74,6.2,ENE,8.1,-,N/A,,Scattered Clouds,60,2013-02-17 16:00:00
8:00 PM,80.6,71.6,74,29.74,6.2,NE,12.7,-,N/A,,Partly Cloudy,50,2013-02-17 17:00:00
9:00 PM,80,73,73,29.77,19,NE,6.9,,,,Scattered Clouds,50,2013-02-17 18:00:00
10:00 PM,78.8,73.4,83,29.77,6.2,ENE,5.8,-,N/A,,Partly Cloudy,70,2013-02-17 19:00:00
11:00 PM,78.8,73.4,83,29.80,6.2,ENE,4.6,-,N/A,,Partly Cloudy,60,2013-02-17 20:00:00